Location: Newark
(48.6461°N, 4.3644°W)
Time: 15:05:43
(UTC+00:00)

Transit 4A - Pass Details

Date: 29 January 2020
Orbit: 872 x 973 km, 66.8° (Epoch: 23 February)

Event Time Altitude Azimuth Distance (km) Brightness Sun altitude
Rises 13:52:24 0° 325° (NW) 3,475 10.6 20.9°
Reaches altitude 10° 13:54:55 10° 329° (NNW) 2,531 9.9 20.8°
Maximum altitude 14:00:42 62° 50° (NE) 981 8.1 20.4°
Drops below altitude 10° 14:06:30 10° 131° (SE) 2,536 10.5 20.0°
Sets 14:09:02 0° 135° (SE) 3,482 11.2 19.9°
